Location: Alpha Ridge Park
(39.3209°N, 76.9128°W)
Time: 17:17:31
(UTC-04:00)

Vanguard 2 Rocket - Pass Details

Date: 23 May 2019
Orbit: 555 x 3326 km, 32.9° (Epoch: 24 June)

Event Time Altitude Azimuth Distance (km) Brightness Sun altitude
Rises 09:51:14 0° 266° (W) 6,549 10.9 44.8°
Reaches altitude 10° 09:56:14 10° 263° (W) 5,143 10.4 45.8°
Maximum altitude 10:09:27 60° 189° (S) 1,797 9.2 48.3°
Drops below altitude 10° 10:16:47 10° 111° (ESE) 2,967 10.4 49.6°
Sets 10:18:57 0° 107° (ESE) 3,675 10.7 50.0°
